Terminal Aerodrome Forecast
Issued by NWS Mt. Holly, NJ

Home | Current Version | Previous Version | Text Only | Print | Product List | Glossary On
Versions: 1 2 3 4 5 6 7 8 9 10 11 12 13 14 15 16 17 18 19 20 21 22 23
000
FTUS41 KPHI 010600 AAA
TAFRDG
TAF AMD
KRDG 010654Z 0107/0206 26003KT P6SM BKN040
     FM011600 25005KT P6SM SCT015 OVC025
     FM012000 VRB03KT 2SM -SN BKN015
     FM020000 11003KT 1SM -SN BKN009=

USA.gov is the U.S. government's official web portal to all federal, state and local government web resources and services.